TimeCDT,TemperatureF,Dew PointF,Humidity,Sea Level PressureIn,VisibilityMPH,Wind Direction,Wind SpeedMPH,Gust SpeedMPH,PrecipitationIn,Events,Conditions,WindDirDegrees,DateUTC
12:53 AM,69.1,39.0,33,29.71,10.0,South,4.6,-,N/A,,Clear,180,2013-06-01 05:53:00
1:53 AM,63.0,42.1,46,29.75,10.0,Variable,4.6,-,N/A,,Clear,0,2013-06-01 06:53:00
2:53 AM,63.0,37.0,38,29.78,10.0,North,16.1,-,N/A,,Clear,10,2013-06-01 07:53:00
3:53 AM,59.0,41.0,51,29.83,10.0,NNE,17.3,25.3,N/A,,Clear,30,2013-06-01 08:53:00
4:53 AM,55.9,39.9,55,29.85,10.0,NNE,11.5,-,N/A,,Clear,20,2013-06-01 09:53:00
5:53 AM,53.1,39.9,61,29.90,10.0,North,8.1,-,N/A,,Clear,360,2013-06-01 10:53:00
6:53 AM,53.1,39.9,61,29.93,10.0,NNW,6.9,-,N/A,,Clear,340,2013-06-01 11:53:00
7:53 AM,57.0,39.9,53,29.96,10.0,North,12.7,-,N/A,,Clear,350,2013-06-01 12:53:00
8:53 AM,63.0,39.9,43,29.96,10.0,North,20.7,29.9,N/A,,Clear,360,2013-06-01 13:53:00
9:53 AM,66.0,39.0,37,29.98,10.0,NNW,26.5,33.4,N/A,,Clear,340,2013-06-01 14:53:00
10:53 AM,71.1,37.9,30,29.97,10.0,North,21.9,32.2,N/A,,Clear,360,2013-06-01 15:53:00
11:53 AM,72.0,37.9,29,29.97,10.0,NNW,20.7,31.1,N/A,,Clear,340,2013-06-01 16:53:00
12:53 PM,75.9,37.0,24,29.96,10.0,NNW,23.0,34.5,N/A,,Clear,340,2013-06-01 17:53:00
1:53 PM,78.1,37.0,23,29.95,10.0,North,24.2,38.0,N/A,,Mostly Cloudy,350,2013-06-01 18:53:00
2:53 PM,79.0,37.0,22,29.94,10.0,NNW,26.5,35.7,N/A,,Mostly Cloudy,340,2013-06-01 19:53:00
3:53 PM,79.0,37.9,23,29.95,10.0,NNW,21.9,36.8,N/A,,Clear,330,2013-06-01 20:53:00
4:53 PM,79.0,37.9,23,29.96,10.0,NNW,23.0,29.9,N/A,,Clear,340,2013-06-01 21:53:00
5:53 PM,78.1,39.0,25,29.97,10.0,NNW,20.7,28.8,N/A,,Clear,340,2013-06-01 22:53:00
6:53 PM,77.0,39.0,25,29.98,10.0,North,16.1,21.9,N/A,,Clear,360,2013-06-01 23:53:00
7:53 PM,73.9,39.9,29,29.99,10.0,North,15.0,-,N/A,,Clear,10,2013-06-02 00:53:00
8:53 PM,71.1,41.0,34,30.01,10.0,NNE,15.0,-,N/A,,Clear,30,2013-06-02 01:53:00
9:53 PM,66.0,41.0,40,30.03,10.0,NE,6.9,-,N/A,,Clear,40,2013-06-02 02:53:00
10:53 PM,64.0,42.1,45,30.05,10.0,NE,8.1,-,N/A,,Clear,40,2013-06-02 03:53:00
11:53 PM,61.0,42.1,50,30.06,10.0,NE,5.8,-,N/A,,Clear,50,2013-06-02 04:53:00